Content
SEND FEEDBACK

Daily
Averages
Monthly
Summary
United States of America

BEDFORD PARK, ILLINOIS


Home > North America > United States > Illinois
Elevation: 623 feet     Latitude: 41 46N     Longitude: 087 45W

WEATHER
 
SELECT A DAY
Number of Records: 193,077;   Date Range: 1/1/95 - 11/20/14
 
SHARE

PRINT THIS DATA

[ ← Previous Day ]
WEATHER ALMANAC - JANUARY 6, 2013
[ Next Day → ]
[ °C ]   °F
Weather ElementAverageHighLow
Temperature29.4 °F37 °F (1:51 am)21.9 °F (11:51 pm)
Dewpoint21.6 °F30.9 °F (1:51 am)17.1 °F (9:51 am)
Humidity73.2 %85 % (11:51 pm)59 % (1:51 pm)
Barometer30.13 in30.38 in (10:51 pm)29.93 in (1:17 am)
Wind Speed12.4 mph19.6 mph (5:07 am)
Wind Gust27.6 mph (5:07 am)
Weather ElementAverage
Visibility8.7 mi
Wind DirectionW (270 °)

Weather ElementTotal
Precipitation---
Heating Degree Days35.6 (Base 65)
Averaged from 28 records on January 6, 2013
WEATHER CONDITIONS BREAKOUT
WIND DIRECTION BREAKOUT
WEATHER BY HOUR - JANUARY 6, 2013
[ °C ]   °F
Local TimeTemperatureDewpointHumidityBarometerVisibilityWind DirectionWind SpeedGust SpeedPrecipitationEventsConditions
1:17 AM35.6 °F30.2 °F81 %29.93 in10.0 miSW (220°)12.7 mphOvercast
1:51 AM37.0 °F30.9 °F79 %29.96 in10.0 miSW (230°)17.3 mph21.9 mphOvercast
2:51 AM36.0 °F30.9 °F82 %29.96 in10.0 miWSW (240°)12.7 mphOvercast
3:51 AM36.0 °F30.9 °F82 %29.95 in10.0 miWSW (240°)16.1 mph21.9 mphOvercast
4:51 AM34.0 °F27.0 °F75 %29.95 in10.0 miWSW (250°)16.1 mphMostly Cloudy
5:07 AM32.0 °F24.8 °F75 %29.93 in10.0 miWSW (250°)19.6 mph27.6 mphScattered Clouds
5:22 AM30.2 °F23.0 °F75 %29.94 in10.0 miWSW (250°)17.3 mph25.3 mphOvercast
5:51 AM28.0 °F21.0 °F75 %30.00 in7.0 miWest (260°)17.3 mph24.2 mphOvercast
6:51 AM27.0 °F19.9 °F75 %30.02 in6.0 miWest (260°)15.0 mph23.0 mphHaze
7:51 AM26.1 °F19.0 °F75 %30.04 in8.0 miWest (270°)10.4 mphOvercast
8:51 AM26.1 °F19.0 °F75 %30.06 in8.0 miWest (270°)13.8 mph20.7 mphMostly Cloudy
9:51 AM25.0 °F17.1 °F72 %30.11 in8.0 miWest (280°)15.0 mphOvercast
10:33 AM26.6 °F17.6 °F69 %30.08 in8.0 miWNW (300°)16.1 mph25.3 mphOvercast
10:51 AM26.6 °F17.6 °F69 %30.08 in8.0 miWNW (290°)16.1 mph23.0 mphOvercast
11:51 AM28.9 °F19.0 °F67 %30.11 in8.0 miWNW (300°)16.1 mph23.0 mphOvercast
12:51 PM32.0 °F19.9 °F61 %30.12 in9.0 miWNW (300°)17.3 mph23.0 mphMostly Cloudy
1:51 PM34.0 °F21.0 °F59 %30.15 in10.0 miNW (310°)13.8 mphMostly Cloudy
2:51 PM33.1 °F21.9 °F64 %30.19 in10.0 miNW (310°)11.5 mphMostly Cloudy
3:24 PM33.8 °F21.2 °F60 %30.18 in10.0 miNW (310°)15.0 mphScattered Clouds
3:51 PM32.0 °F21.0 °F64 %30.23 in10.0 miWNW (300°)11.5 mphMostly Cloudy
4:51 PM30.0 °F21.0 °F69 %30.26 in10.0 miWNW (300°)9.2 mphScattered Clouds
5:51 PM28.0 °F19.9 °F72 %30.31 in9.0 miWest (280°)9.2 mphPartly Cloudy
6:51 PM27.0 °F19.9 °F75 %30.34 in9.0 miWNW (290°)4.6 mphClear
7:51 PM25.0 °F19.0 °F78 %30.36 in8.0 miWest (270°)4.6 mphClear
8:51 PM25.0 °F18.0 °F75 %30.36 in7.0 miWest (270°)5.8 mphClear
9:51 PM23.0 °F18.0 °F81 %30.37 in8.0 miWSW (240°)4.6 mphClear
10:51 PM23.0 °F18.0 °F81 %30.38 in6.0 miWSW (240°)4.6 mphHaze
11:51 PM21.9 °F18.0 °F85 %30.37 in6.0 miSW (230°)3.5 mphPartly Cloudy
Hourly data recorded from KMDW, located miles away from Bedford Park, Illinois







STORIES FROM OUR PARTNERS